EN

Hourly Weather Abeche

Today, 15 June, Tuesday

Time Temperature Precipitation Wind Pressure Humidity
00:00 +34°C° 0 mm 1 mps 709 mmHg 28%
01:00 +33°C° 0 mm 1 mps 709 mmHg 30%
02:00 +32°C° 0 mm 1 mps 709 mmHg 31%
03:00 +32°C° 0 mm 1 mps 709 mmHg 32%
04:00 +29°C° 0 mm 0 mps 709 mmHg 33%
05:00 +32°C° 0 mm 1 mps 709 mmHg 31%
06:00 +34°C° 0 mm 1 mps 710 mmHg 29%
07:00 +34°C° 0 mm 1 mps 710 mmHg 29%
08:00 +36°C° 0 mm 1 mps 710 mmHg 25%
09:00 +39°C° 0 mm 1 mps 711 mmHg 21%
10:00 +41°C° 0 mm 1 mps 711 mmHg 17%
11:00 +42°C° 0 mm 2 mps 710 mmHg 14%
12:00 +43°C° 0 mm 2 mps 710 mmHg 11%
13:00 +45°C° 0 mm 2 mps 709 mmHg 9%
14:00 +45°C° 0 mm 3 mps 709 mmHg 8%
15:00 +45°C° 0 mm 3 mps 708 mmHg 8%
16:00 +45°C° 0 mm 4 mps 707 mmHg 8%
17:00 +44°C° 0 mm 4 mps 707 mmHg 9%
18:00 +42°C° 0 mm 3 mps 707 mmHg 9%
19:00 +40°C° 0 mm 3 mps 707 mmHg 10%
20:00 +39°C° 0 mm 3 mps 708 mmHg 11%
21:00 +39°C° 0 mm 3 mps 708 mmHg 11%
22:00 +38°C° 0 mm 3 mps 709 mmHg 12%
23:00 +37°C° 0 mm 3 mps 709 mmHg 15%

Tomorrow, 16 June, Wednesday

Time Temperature Precipitation Wind Pressure Humidity
00:00 +36°C° 0 mm 4 mps 709 mmHg 19%
01:00 +35°C° 0 mm 4 mps 709 mmHg 23%
02:00 +34°C° 0 mm 4 mps 709 mmHg 27%
03:00 +33°C° 0 mm 4 mps 709 mmHg 32%
04:00 +32°C° 0 mm 4 mps 709 mmHg 37%
05:00 +33°C° 0 mm 4 mps 710 mmHg 36%
06:00 +33°C° 0 mm 4 mps 710 mmHg 36%
07:00 +34°C° 0 mm 4 mps 711 mmHg 36%
08:00 +36°C° 0 mm 4 mps 711 mmHg 32%
09:00 +37°C° 0 mm 4 mps 711 mmHg 29%
10:00 +40°C° 0 mm 5 mps 711 mmHg 26%
11:00 +41°C° 0 mm 4 mps 711 mmHg 24%
12:00 +42°C° 0 mm 4 mps 710 mmHg 21%
13:00 +43°C° 0 mm 3 mps 710 mmHg 19%
14:00 +42°C° 0 mm 3 mps 709 mmHg 19%
15:00 +42°C° 0 mm 3 mps 709 mmHg 18%
16:00 +42°C° 0 mm 3 mps 708 mmHg 18%
17:00 +39°C° 0.1 mm 3 mps 709 mmHg 21%
18:00 +38°C° 0.1 mm 2 mps 709 mmHg 25%
19:00 +36°C° 0.1 mm 2 mps 709 mmHg 28%
20:00 +36°C° 0 mm 2 mps 709 mmHg 27%
21:00 +36°C° 0 mm 2 mps 709 mmHg 26%
22:00 +36°C° 0 mm 3 mps 710 mmHg 24%
23:00 +35°C° 0 mm 2 mps 709 mmHg 26%

Day after tomorrow, 17 June, Thursday

Time Temperature Precipitation Wind Pressure Humidity
00:00 +35°C° 0 mm 2 mps 709 mmHg 27%
01:00 +34°C° 0 mm 2 mps 709 mmHg 28%
02:00 +32°C° 0 mm 2 mps 709 mmHg 31%
03:00 +31°C° 0 mm 1 mps 709 mmHg 33%
04:00 +31°C° 0 mm 1 mps 709 mmHg 35%
05:00 +32°C° 0 mm 2 mps 710 mmHg 34%
06:00 +34°C° 0 mm 2 mps 711 mmHg 32%
07:00 +35°C° 0 mm 3 mps 712 mmHg 31%
08:00 +36°C° 0 mm 4 mps 712 mmHg 30%
09:00 +37°C° 0 mm 4 mps 712 mmHg 29%
10:00 +39°C° 0 mm 5 mps 713 mmHg 28%
11:00 +40°C° 0 mm 4 mps 712 mmHg 26%
12:00 +40°C° 0 mm 4 mps 712 mmHg 25%
13:00 +40°C° 0 mm 3 mps 711 mmHg 23%
14:00 +41°C° 0 mm 4 mps 711 mmHg 24%
15:00 +40°C° 0 mm 4 mps 711 mmHg 24%
16:00 +40°C° 0 mm 5 mps 710 mmHg 24%
17:00 +38°C° 0.1 mm 4 mps 710 mmHg 24%
18:00 +37°C° 0.1 mm 3 mps 710 mmHg 24%
19:00 +36°C° 0.1 mm 3 mps 710 mmHg 24%
20:00 +35°C° 0 mm 4 mps 710 mmHg 30%
21:00 +33°C° 0 mm 6 mps 711 mmHg 36%
22:00 +32°C° 0 mm 8 mps 711 mmHg 42%
23:00 +32°C° 0 mm 6 mps 711 mmHg 43%

18 June, Friday

Time Temperature Precipitation Wind Pressure Humidity
00:00 +30°C° 0 mm 4 mps 711 mmHg 44%
01:00 +30°C° 0 mm 2 mps 711 mmHg 44%
02:00 +30°C° 0 mm 2 mps 711 mmHg 45%
03:00 +29°C° 0 mm 2 mps 711 mmHg 46%
04:00 +29°C° 0 mm 2 mps 711 mmHg 47%
05:00 +30°C° 0 mm 3 mps 712 mmHg 47%
06:00 +30°C° 0 mm 3 mps 712 mmHg 47%
07:00 +32°C° 0 mm 4 mps 713 mmHg 46%
08:00 +34°C° 0 mm 3 mps 713 mmHg 41%
09:00 +35°C° 0 mm 3 mps 713 mmHg 36%
10:00 +37°C° 0 mm 3 mps 713 mmHg 31%
11:00 +38°C° 0 mm 2 mps 712 mmHg 28%
12:00 +40°C° 0 mm 1 mps 712 mmHg 25%
13:00 +41°C° 0 mm 1 mps 711 mmHg 22%
14:00 +39°C° 0.1 mm 3 mps 711 mmHg 26%
15:00 +37°C° 0.1 mm 5 mps 711 mmHg 30%
16:00 +35°C° 0.1 mm 7 mps 711 mmHg 35%
17:00 +34°C° 0.2 mm 6 mps 711 mmHg 35%
18:00 +34°C° 0.2 mm 5 mps 711 mmHg 36%
19:00 +33°C° 0.2 mm 4 mps 712 mmHg 37%
20:00 +33°C° 0 mm 3 mps 712 mmHg 37%
21:00 +33°C° 0 mm 3 mps 711 mmHg 36%
22:00 +34°C° 0 mm 3 mps 711 mmHg 36%
23:00 +34°C° 0 mm 3 mps 711 mmHg 36%

19 June, Saturday

Time Temperature Precipitation Wind Pressure Humidity
00:00 +34°C° 0 mm 3 mps 711 mmHg 36%
01:00 +34°C° 0 mm 3 mps 711 mmHg 35%
02:00 +33°C° 0 mm 3 mps 711 mmHg 37%
03:00 +31°C° 0 mm 3 mps 711 mmHg 39%
04:00 +31°C° 0 mm 3 mps 711 mmHg 41%
05:00 +31°C° 0 mm 3 mps 711 mmHg 40%
06:00 +33°C° 0 mm 3 mps 712 mmHg 39%
07:00 +33°C° 0 mm 3 mps 713 mmHg 38%
08:00 +35°C° 0 mm 3 mps 713 mmHg 35%
09:00 +36°C° 0 mm 3 mps 713 mmHg 32%
10:00 +38°C° 0 mm 4 mps 713 mmHg 29%
11:00 +39°C° 0 mm 3 mps 712 mmHg 27%
12:00 +40°C° 0 mm 3 mps 712 mmHg 24%
13:00 +42°C° 0 mm 3 mps 711 mmHg 22%
14:00 +38°C° 0.4 mm 4 mps 711 mmHg 32%
15:00 +34°C° 0.4 mm 6 mps 711 mmHg 42%
16:00 +31°C° 0.4 mm 8 mps 711 mmHg 51%
17:00 +30°C° 0.5 mm 7 mps 710 mmHg 50%
18:00 +30°C° 0.5 mm 7 mps 710 mmHg 48%
19:00 +30°C° 0.5 mm 6 mps 710 mmHg 46%
20:00 +30°C° 0 mm 6 mps 711 mmHg 45%
21:00 +30°C° 0 mm 7 mps 711 mmHg 45%
22:00 +30°C° 0 mm 7 mps 711 mmHg 44%
23:00 +30°C° 0 mm 6 mps 711 mmHg 46%

20 June, Sunday

Time Temperature Precipitation Wind Pressure Humidity
00:00 +30°C° 0 mm 5 mps 711 mmHg 48%
01:00 +30°C° 0 mm 4 mps 711 mmHg 50%
02:00 +29°C° 0 mm 4 mps 711 mmHg 52%
03:00 +29°C° 0 mm 4 mps 711 mmHg 53%
04:00 +29°C° 0 mm 4 mps 711 mmHg 55%
05:00 +29°C° 0 mm 4 mps 712 mmHg 55%
06:00 +29°C° 0 mm 5 mps 713 mmHg 55%
07:00 +29°C° 0 mm 5 mps 713 mmHg 54%
08:00 +32°C° 0 mm 5 mps 713 mmHg 50%
09:00 +33°C° 0 mm 5 mps 713 mmHg 45%
10:00 +35°C° 0 mm 5 mps 713 mmHg 41%
11:00 +36°C° 0 mm 4 mps 713 mmHg 37%
12:00 +37°C° 0 mm 4 mps 712 mmHg 34%
13:00 +38°C° 0 mm 3 mps 712 mmHg 31%
14:00 +38°C° 0 mm 3 mps 712 mmHg 30%
15:00 +38°C° 0 mm 4 mps 711 mmHg 29%
16:00 +40°C° 0 mm 4 mps 711 mmHg 28%
17:00 +35°C° 0.5 mm 6 mps 711 mmHg 37%
18:00 +32°C° 0.5 mm 9 mps 711 mmHg 46%
19:00 +27°C° 0.5 mm 12 mps 711 mmHg 54%
20:00 +28°C° 0.2 mm 9 mps 711 mmHg 49%
21:00 +30°C° 0.2 mm 6 mps 711 mmHg 44%
22:00 +32°C° 0.2 mm 4 mps 711 mmHg 39%
23:00 +30°C° 0.3 mm 5 mps 711 mmHg 42%
Show more